Flag for Canada Weather past 2 weeks in Trois-Rivieres, Quebec, Canada

Now
58 °F

Cool.


Feels Like: 58 °F
Forecast: 53 / 73 °F
Wind: 6 mph from Northwest

Location: Trois Rivieres

Current Time: Aug 28, 2015 at 5:42:24 AM

Latest Report: Aug 28, 2015 at 5:00 AM


Visibility: N/A

Pressure: 30.07 "Hg

Humidity: 82%

Dew point: 53 °F

Location of Trois-RivieresLocation

Historic Weather in Trois-Rivieres — Graph

°F

Trois-Rivieres temperature yesterday

Maximum temperature yesterday: 70 °F (at 4:00 PM)
Minimum temperature yesterday: 62 °F (at 11:00 PM)
Average temperature yesterday: 66 °F

Past Weeks' High & Low Weather Summary

 TemperatureHumidityPressure
High84 °F (Aug 19, 5:00 PM)100% (Aug 15, 7:00 AM)30.14 "Hg (Aug 15, 7:00 AM)
Low58 °F (Aug 28, 4:00 AM)48% (Aug 23, 4:00 PM)29.75 "Hg (Aug 24, 6:00 PM)
Average71 °F80%29.95 "Hg
* Reported Aug 13 4:00 AM — Aug 28 4:00 AM, Trois-Rivieres, Weather by CustomWeather, © 2015

Note: Actual official high and low records may vary slightly from our data, if they occured in-between our weather recording intervals... More about our weather records

Advertising

Trois-Rivieres weather history for previous 24 hours

 ConditionsComfort  
Time TempWeatherWind HumidityBarometerVisibility
4:00 AM
Fri, Aug 28
58 °FCool.2 mph84%30.07 "HgN/A
3:00 AM59 °FCool.8 mph86%30.06 "HgN/A
2:00 AM60 °FCool.8 mph84%30.06 "HgN/A
1:00 AM60 °FCool.3 mph80%30.05 "HgN/A
12:00 AM60 °FCool.2 mph77%30.04 "HgN/A
11:00 PM
Thu, Aug 27
62 °FCool.3 mph74%30.04 "HgN/A
10:00 PM64 °FMild.3 mph68%30.02 "HgN/A
9:00 PM66 °FMild.6 mph70%30.01 "HgN/A
8:00 PM68 °FMild.7 mph67%29.99 "HgN/A
7:00 PM69 °FMild.7 mph68%29.96 "HgN/A
6:00 PM70 °FMild.2 mph66%29.95 "HgN/A
5:00 PM67 °FMild.1 mph81%29.95 "HgN/A
4:00 PM70 °FMild.14 mph68%29.93 "HgN/A
3:00 PM69 °FMild.14 mph77%29.93 "HgN/A
2:00 PM67 °FMild.13 mph77%29.94 "HgN/A
1:00 PM68 °FMild.8 mph69%29.94 "HgN/A
12:00 PM69 °FMild.6 mph65%29.94 "HgN/A
11:00 AM68 °FMild.7 mph69%29.95 "HgN/A
10:00 AM66 °FMild.5 mph81%29.95 "HgN/A
9:00 AM65 °FMild.6 mph81%29.94 "HgN/A
8:00 AM64 °FMild.2 mph84%29.93 "HgN/A
7:00 AM63 °FMild.3 mph86%29.91 "HgN/A
6:00 AM63 °FMild.3 mph90%29.89 "HgN/A
5:00 AM64 °FMild.10 mph92%29.89 "HgN/A
Weather by CustomWeather, © 2015

See weather overviewHow to use our weather pages